Previsão horária em Allande

Hoje, 27 Janeiro, Quarta-feira

Tempo Temperatura Precipitação Vento Pressão Humidade
00:00 +10°C° 0 mm 1 m/s 681 mmHg 98%
01:00 +9°C° 0.1 mm 2 m/s 681 mmHg 98%
02:00 +9°C° 0.1 mm 2 m/s 681 mmHg 97%
03:00 +9°C° 0.1 mm 2 m/s 681 mmHg 97%
04:00 +9°C° 0 mm 2 m/s 681 mmHg 97%
05:00 +8°C° 0 mm 2 m/s 681 mmHg 97%
06:00 +8°C° 0 mm 2 m/s 681 mmHg 97%
07:00 +8°C° 0 mm 2 m/s 681 mmHg 96%
08:00 +9°C° 0 mm 2 m/s 681 mmHg 95%
09:00 +9°C° 0 mm 2 m/s 682 mmHg 95%
10:00 +10°C° 0 mm 2 m/s 682 mmHg 91%
11:00 +11°C° 0 mm 3 m/s 682 mmHg 88%
12:00 +12°C° 0 mm 3 m/s 683 mmHg 84%
13:00 +12°C° 0 mm 3 m/s 683 mmHg 83%
14:00 +12°C° 0 mm 3 m/s 682 mmHg 82%
15:00 +13°C° 0 mm 3 m/s 682 mmHg 80%
16:00 +11°C° 0 mm 3 m/s 681 mmHg 84%
17:00 +10°C° 0 mm 2 m/s 681 mmHg 87%
18:00 +9°C° 0 mm 2 m/s 681 mmHg 91%
19:00 +9°C° 0 mm 2 m/s 681 mmHg 92%
20:00 +8°C° 0 mm 2 m/s 681 mmHg 93%
21:00 +8°C° 0 mm 2 m/s 681 mmHg 93%
22:00 +8°C° 0 mm 2 m/s 681 mmHg 93%
23:00 +8°C° 0 mm 2 m/s 681 mmHg 93%

Amanhã, 28 Janeiro, Quinta-feira

Tempo Temperatura Precipitação Vento Pressão Humidade
00:00 +8°C° 0 mm 3 m/s 681 mmHg 92%
01:00 +8°C° 0 mm 3 m/s 680 mmHg 92%
02:00 +7°C° 0 mm 3 m/s 680 mmHg 92%
03:00 +7°C° 0 mm 3 m/s 680 mmHg 91%
04:00 +7°C° 0 mm 3 m/s 679 mmHg 90%
05:00 +8°C° 0 mm 3 m/s 679 mmHg 89%
06:00 +8°C° 0 mm 3 m/s 679 mmHg 88%
07:00 +8°C° 0 mm 3 m/s 679 mmHg 88%
08:00 +8°C° 0 mm 3 m/s 679 mmHg 87%
09:00 +8°C° 0 mm 3 m/s 680 mmHg 86%
10:00 +10°C° 0 mm 3 m/s 680 mmHg 83%
11:00 +11°C° 0 mm 4 m/s 680 mmHg 79%
12:00 +12°C° 0 mm 4 m/s 680 mmHg 75%
13:00 +12°C° 0 mm 4 m/s 679 mmHg 76%
14:00 +12°C° 0 mm 3 m/s 679 mmHg 78%
15:00 +12°C° 0 mm 3 m/s 678 mmHg 79%
16:00 +11°C° 0.1 mm 3 m/s 678 mmHg 83%
17:00 +10°C° 0.1 mm 3 m/s 678 mmHg 87%
18:00 +10°C° 0.1 mm 3 m/s 678 mmHg 91%
19:00 +9°C° 0.6 mm 3 m/s 678 mmHg 92%
20:00 +9°C° 0.6 mm 3 m/s 677 mmHg 94%
21:00 +8°C° 0.6 mm 3 m/s 677 mmHg 95%
22:00 +8°C° 0.5 mm 3 m/s 677 mmHg 95%
23:00 +8°C° 0.5 mm 3 m/s 678 mmHg 95%

Depois de amanhã, 29 Janeiro, Sexta-feira

Tempo Temperatura Precipitação Vento Pressão Humidade
00:00 +8°C° 0.5 mm 3 m/s 678 mmHg 95%
01:00 +8°C° 0.3 mm 3 m/s 678 mmHg 95%
02:00 +8°C° 0.3 mm 3 m/s 678 mmHg 96%
03:00 +8°C° 0.3 mm 3 m/s 677 mmHg 96%
04:00 +8°C° 0.2 mm 2 m/s 677 mmHg 96%
05:00 +8°C° 0.2 mm 2 m/s 677 mmHg 96%
06:00 +8°C° 0.2 mm 2 m/s 677 mmHg 97%
07:00 +8°C° 0.1 mm 2 m/s 678 mmHg 96%
08:00 +8°C° 0.1 mm 2 m/s 678 mmHg 96%
09:00 +8°C° 0.1 mm 2 m/s 678 mmHg 96%
10:00 +9°C° 0.1 mm 3 m/s 678 mmHg 92%
11:00 +10°C° 0.1 mm 3 m/s 678 mmHg 88%
12:00 +11°C° 0.1 mm 4 m/s 678 mmHg 84%
13:00 +11°C° 0 mm 3 m/s 677 mmHg 83%
14:00 +11°C° 0 mm 3 m/s 677 mmHg 83%
15:00 +11°C° 0 mm 3 m/s 676 mmHg 82%
16:00 +10°C° 0 mm 3 m/s 675 mmHg 84%
17:00 +9°C° 0 mm 3 m/s 675 mmHg 86%
18:00 +9°C° 0 mm 3 m/s 674 mmHg 88%
19:00 +8°C° 0 mm 3 m/s 674 mmHg 87%
20:00 +7°C° 0 mm 4 m/s 673 mmHg 86%
21:00 +6°C° 0 mm 4 m/s 672 mmHg 85%
22:00 +6°C° 1.8 mm 4 m/s 672 mmHg 88%
23:00 +6°C° 1.8 mm 4 m/s 672 mmHg 91%

30 Janeiro, Sábado

Tempo Temperatura Precipitação Vento Pressão Humidade
00:00 +6°C° 1.8 mm 4 m/s 672 mmHg 94%
01:00 +5°C° 1.2 mm 5 m/s 671 mmHg 93%
02:00 +3°C° 1.2 mm 5 m/s 671 mmHg 92%
03:00 +2°C° 1.2 mm 6 m/s 671 mmHg 90%
04:00 +2°C° 0.1 mm 6 m/s 671 mmHg 91%
05:00 +2°C° 0.1 mm 5 m/s 671 mmHg 91%
06:00 +2°C° 0.1 mm 5 m/s 671 mmHg 91%
07:00 +1°C° 0.4 mm 6 m/s 671 mmHg 91%
08:00 +1°C° 0.4 mm 6 m/s 671 mmHg 91%
09:00 +1°C° 0.4 mm 6 m/s 671 mmHg 91%
10:00 +1°C° 0.7 mm 6 m/s 672 mmHg 92%
11:00 0°C° 0.7 mm 7 m/s 672 mmHg 93%
12:00 0°C° 0.7 mm 7 m/s 672 mmHg 94%
13:00 0°C° 0.4 mm 7 m/s 672 mmHg 93%
14:00 0°C° 0.4 mm 7 m/s 672 mmHg 92%
15:00 0°C° 0.4 mm 7 m/s 672 mmHg 91%
16:00 +1°C° 0.4 mm 6 m/s 672 mmHg 92%
17:00 +1°C° 0.4 mm 6 m/s 672 mmHg 93%
18:00 0°C° 0.4 mm 5 m/s 673 mmHg 94%
19:00 0°C° 0.2 mm 5 m/s 673 mmHg 94%
20:00 +1°C° 0.2 mm 5 m/s 674 mmHg 93%
21:00 +1°C° 0.2 mm 5 m/s 674 mmHg 92%
22:00 +1°C° 0.1 mm 5 m/s 674 mmHg 93%
23:00 +1°C° 0.1 mm 4 m/s 674 mmHg 93%

31 Janeiro, Domingo

Tempo Temperatura Precipitação Vento Pressão Humidade
00:00 +1°C° 0.1 mm 4 m/s 675 mmHg 93%
01:00 +2°C° 0.5 mm 3 m/s 674 mmHg 94%
02:00 +3°C° 0.5 mm 3 m/s 674 mmHg 95%
03:00 +3°C° 0.5 mm 3 m/s 674 mmHg 96%
04:00 +3°C° 0.3 mm 3 m/s 674 mmHg 95%
05:00 +4°C° 0.3 mm 3 m/s 674 mmHg 95%
06:00 +4°C° 0.3 mm 3 m/s 674 mmHg 95%
07:00 +4°C° 0.1 mm 4 m/s 674 mmHg 94%
08:00 +5°C° 0.1 mm 4 m/s 674 mmHg 93%
09:00 +5°C° 0.1 mm 4 m/s 674 mmHg 92%
10:00 +6°C° 0.1 mm 4 m/s 674 mmHg 91%
11:00 +7°C° 0.1 mm 5 m/s 674 mmHg 89%
12:00 +8°C° 0.1 mm 5 m/s 674 mmHg 88%
13:00 +8°C° 0.1 mm 6 m/s 674 mmHg 88%
14:00 +8°C° 0.1 mm 6 m/s 673 mmHg 87%
15:00 +8°C° 0.1 mm 7 m/s 673 mmHg 87%
16:00 +8°C° 0.1 mm 6 m/s 673 mmHg 87%
17:00 +7°C° 0.1 mm 6 m/s 674 mmHg 87%
18:00 +6°C° 0.1 mm 5 m/s 674 mmHg 88%
19:00 +6°C° 0 mm 5 m/s 674 mmHg 89%
20:00 +6°C° 0 mm 4 m/s 675 mmHg 89%
21:00 +6°C° 0 mm 4 m/s 675 mmHg 90%
22:00 +6°C° 0 mm 4 m/s 675 mmHg 90%
23:00 +6°C° 0 mm 4 m/s 676 mmHg 90%

1 Fevereiro, Segunda-feira

Tempo Temperatura Precipitação Vento Pressão Humidade
00:00 +6°C° 0 mm 4 m/s 676 mmHg 90%
01:00 +5°C° 0 mm 3 m/s 676 mmHg 90%
02:00 +5°C° 0 mm 3 m/s 676 mmHg 90%
03:00 +5°C° 0 mm 3 m/s 676 mmHg 90%
04:00 +5°C° 0 mm 3 m/s 676 mmHg 90%
05:00 +5°C° 0 mm 3 m/s 676 mmHg 90%
06:00 +5°C° 0 mm 3 m/s 676 mmHg 90%
07:00 +5°C° 0 mm 3 m/s 676 mmHg 89%
08:00 +5°C° 0 mm 3 m/s 676 mmHg 88%
09:00 +7°C° 0 mm 3 m/s 676 mmHg 87%
10:00 +7°C° 0 mm 3 m/s 677 mmHg 85%
11:00 +7°C° 0 mm 4 m/s 677 mmHg 84%
12:00 +7°C° 0 mm 4 m/s 677 mmHg 83%
13:00 +8°C° 0 mm 4 m/s 677 mmHg 82%
14:00 +8°C° 0 mm 4 m/s 677 mmHg 81%
15:00 +10°C° 0 mm 4 m/s 676 mmHg 80%
16:00 +8°C° 0 mm 4 m/s 676 mmHg 82%
17:00 +8°C° 0 mm 4 m/s 676 mmHg 85%
18:00 +8°C° 0 mm 3 m/s 676 mmHg 87%
19:00 +8°C° 0 mm 3 m/s 676 mmHg 88%
20:00 +6°C° 0 mm 4 m/s 676 mmHg 88%
21:00 +6°C° 0 mm 4 m/s 676 mmHg 88%
22:00 +6°C° 0 mm 4 m/s 676 mmHg 87%
23:00 +6°C° 0 mm 4 m/s 676 mmHg 87%
Mostrar mais

Necessitamos do seu Consentimento

A Meteoprog e os seus Fornecedores de Serviços podem armazenar e aceder a dados pessoais como cookies, identificadores do dispositivo ou outras tecnologias semelhantes existentes no seu dispositivo e processar estes dados para personalizar conteúdos e anúncios, assim como funcionalidades nas redes sociais e análise de tráfego.

  • Armazenar e/ou aceder a informações no seu dispositivo

    Os cookies, identificadores do dispositivo ou outras informações podem ser armazenados ou acedidos no seu dispositivo, para os fins acima indicados.

  • Anúncios e conteúdos personalizados, medição de anúncios e conteúdos, dados sobre o público-alvo e desenvolvimento de produtos

    Os anúncios e os conteúdos podem ser personalizados com base num perfil. Podem ser adicionados dados adicionais para uma maior personalização dos anúncios e dos conteúdos. A eficácia dos anúncios e dos conteúdos pode ser medida. Podem ser obtidas informações sobre o público que visualizou os anúncios e os conteúdos. Estes dados podem ser usados para desenvolver ou melhorar sistemas, softwares ou a experiência do utilizador.

Ao clicar em "Eu concordo”, permitirá o uso de cookies, identificadores do dispositivo e web beacons mencionados ou outras tecnologias semelhantes. As configurações do navegador do seu dispositivo podem ser alteradas.

Para certos fins, podem ser invocados interesses legítimos ao invés de consentimento. Pode ler mais informação sobre este assunto na nossa Política de Privacidade e Cookies.